Location: Complexul Astronomic Baia Mare
(47.6577°N, 23.5639°E)
Time: 00:04:01
(UTC+02:00)

ISS - Pass Details

Date: 23 March 2017
Orbit: 399 x 409 km, 51.6° (Epoch: 25 March)

Event Time Altitude Azimuth Distance (km) Brightness Sun altitude
Exits shadow 03:57:26 13° 127° (SE) 1,280 -1.1 -24.1°
Drops below altitude 10° 03:57:54 10° 126° (SE) 1,469 -0.7 -24.0°
Sets 03:59:59 0° 123° (ESE) 2,328 0.4 -23.7°
